TimeCDT,TemperatureF,Dew PointF,Humidity,Sea Level PressureIn,VisibilityMPH,Wind Direction,Wind SpeedMPH,Gust SpeedMPH,PrecipitationIn,Events,Conditions,WindDirDegrees,DateUTC
12:55 AM,68.2,64.9,89,30.01,10.0,Variable,5.8,-,N/A,,Clear,0,2012-10-07 05:55:00
1:45 AM,68.0,64.4,88,30.02,10.0,NNE,10.4,-,N/A,,Mostly Cloudy,30,2012-10-07 06:45:00
1:49 AM,68.0,64.4,88,30.02,10.0,NNE,10.4,-,N/A,,Mostly Cloudy,30,2012-10-07 06:49:00
1:55 AM,67.5,64.6,90,30.02,10.0,NNE,9.2,-,N/A,,Mostly Cloudy,30,2012-10-07 06:55:00
2:52 AM,66.2,62.6,88,30.03,10.0,NE,11.5,-,N/A,,Overcast,40,2012-10-07 07:52:00
2:55 AM,66.6,62.8,88,30.03,10.0,NE,11.5,-,N/A,,Overcast,40,2012-10-07 07:55:00
3:55 AM,64.8,60.4,86,30.02,10.0,North,9.2,-,N/A,,Overcast,360,2012-10-07 08:55:00
4:33 AM,60.8,57.2,88,30.04,10.0,North,8.1,-,N/A,,Scattered Clouds,10,2012-10-07 09:33:00
4:55 AM,60.8,57.2,88,30.03,10.0,Variable,5.8,-,N/A,,Clear,0,2012-10-07 09:55:00
5:55 AM,59.7,56.3,88,30.05,10.0,Variable,6.9,-,N/A,,Clear,0,2012-10-07 10:55:00
6:55 AM,59.7,56.7,90,30.06,10.0,North,8.1,-,N/A,,Partly Cloudy,10,2012-10-07 11:55:00
7:32 AM,60.8,57.2,88,30.07,10.0,NNE,6.9,-,N/A,,Mostly Cloudy,20,2012-10-07 12:32:00
7:55 AM,60.4,56.7,87,30.08,10.0,North,10.4,-,N/A,,Mostly Cloudy,10,2012-10-07 12:55:00
7:57 AM,60.8,57.2,88,30.08,10.0,NNE,10.4,17.3,N/A,,Mostly Cloudy,20,2012-10-07 12:57:00
8:55 AM,63.1,57.0,80,30.10,10.0,NNE,8.1,-,N/A,,Partly Cloudy,20,2012-10-07 13:55:00
9:55 AM,63.5,56.8,79,30.10,10.0,NNE,9.2,17.3,N/A,,Mostly Cloudy,20,2012-10-07 14:55:00
10:55 AM,67.3,58.3,73,30.10,10.0,North,10.4,17.3,N/A,,Clear,10,2012-10-07 15:55:00
11:55 AM,70.3,59.9,69,30.09,10.0,NE,9.2,-,N/A,,Partly Cloudy,40,2012-10-07 16:55:00
12:55 PM,72.5,60.3,65,30.06,10.0,NNE,11.5,17.3,N/A,,Clear,30,2012-10-07 17:55:00
1:55 PM,73.6,60.8,64,30.04,10.0,NNW,12.7,17.3,N/A,,Clear,340,2012-10-07 18:55:00
2:55 PM,73.9,60.3,62,30.02,10.0,North,10.4,17.3,N/A,,Clear,350,2012-10-07 19:55:00
3:55 PM,74.1,60.3,62,30.02,10.0,NNW,11.5,17.3,N/A,,Clear,340,2012-10-07 20:55:00
4:55 PM,72.7,59.9,64,30.01,10.0,North,4.6,-,N/A,,Clear,360,2012-10-07 21:55:00
5:55 PM,69.6,58.5,68,30.03,10.0,NNE,9.2,-,N/A,,Clear,30,2012-10-07 22:55:00
6:55 PM,66.9,57.9,73,30.05,10.0,NNE,8.1,-,N/A,,Clear,20,2012-10-07 23:55:00
7:55 PM,64.9,56.8,75,30.07,10.0,Variable,6.9,-,N/A,,Clear,0,2012-10-08 00:55:00
8:55 PM,63.1,56.1,78,30.09,10.0,NNE,10.4,18.4,N/A,,Clear,30,2012-10-08 01:55:00
9:55 PM,60.6,53.4,77,30.11,10.0,NNE,10.4,-,N/A,,Clear,30,2012-10-08 02:55:00
10:55 PM,59.0,52.7,80,30.11,10.0,NNE,10.4,-,N/A,,Clear,30,2012-10-08 03:55:00
11:55 PM,57.9,51.8,80,30.10,10.0,NNE,9.2,-,N/A,,Clear,30,2012-10-08 04:55:00